Вернуться в каталог

COSMOS 2491 DEB

АктивенPO
NORAD 44998·DEBRIS·🇷🇺 Russia

Запущен Dec 25, 2013 с Plesetsk Cosmodrome

Loading…

Ближайшие Пролёты (ближайшие 24 часа)

TLE

УстаревающийSource: Space-Track

Эпоха: Sep 3, 2026, 19:34 UTC

1 44998U 13076S   26246.81596739  .00001201  00000-0  60799-2 0  9996
2 44998  82.4691  59.4163 0091548 326.3818  33.1488 12.67872650307250

Отслеживайте COSMOS 2491 DEB в реальном времени с AllMySat

Download on the App Store